Index of /20260504/WXO-DD/model_gdps/15km/12/105
Name Last modified Size Description
Parent Directory -
20260504T12Z_MSC_GDPS_AbsoluteVorticity_IsbL-0200_LatLon0.15_PT105H.grib2 2026-05-04 16:44 1.2M
20260504T12Z_MSC_GDPS_AbsoluteVorticity_IsbL-0250_LatLon0.15_PT105H.grib2 2026-05-04 16:44 1.3M
20260504T12Z_MSC_GDPS_AbsoluteVorticity_IsbL-0500_LatLon0.15_PT105H.grib2 2026-05-04 16:44 1.4M
20260504T12Z_MSC_GDPS_AbsoluteVorticity_IsbL-0700_LatLon0.15_PT105H.grib2 2026-05-04 16:44 1.3M
20260504T12Z_MSC_GDPS_AbsoluteVorticity_IsbL-0850_LatLon0.15_PT105H.grib2 2026-05-04 16:44 1.6M
20260504T12Z_MSC_GDPS_AirTemp_AGL-120m_LatLon0.15_PT105H.grib2 2026-05-04 16:44 913K
20260504T12Z_MSC_GDPS_AirTemp_AGL-2m_LatLon0.15_PT105H.grib2 2026-05-04 16:44 1.0M
20260504T12Z_MSC_GDPS_AirTemp_AGL-40m_LatLon0.15_PT105H.grib2 2026-05-04 16:44 819K
20260504T12Z_MSC_GDPS_AirTemp_AGL-80m_LatLon0.15_PT105H.grib2 2026-05-04 16:44 806K
20260504T12Z_MSC_GDPS_AirTemp_IsbL-0001_LatLon0.15_PT105H.grib2 2026-05-04 16:44 667K
20260504T12Z_MSC_GDPS_AirTemp_IsbL-0005_LatLon0.15_PT105H.grib2 2026-05-04 16:44 703K
20260504T12Z_MSC_GDPS_AirTemp_IsbL-0010_LatLon0.15_PT105H.grib2 2026-05-04 16:44 703K
20260504T12Z_MSC_GDPS_AirTemp_IsbL-0020_LatLon0.15_PT105H.grib2 2026-05-04 16:44 721K
20260504T12Z_MSC_GDPS_AirTemp_IsbL-0030_LatLon0.15_PT105H.grib2 2026-05-04 16:44 840K
20260504T12Z_MSC_GDPS_AirTemp_IsbL-0050_LatLon0.15_PT105H.grib2 2026-05-04 16:44 806K
20260504T12Z_MSC_GDPS_AirTemp_IsbL-0100_LatLon0.15_PT105H.grib2 2026-05-04 16:44 966K
20260504T12Z_MSC_GDPS_AirTemp_IsbL-0150_LatLon0.15_PT105H.grib2 2026-05-04 16:44 1.0M
20260504T12Z_MSC_GDPS_AirTemp_IsbL-0175_LatLon0.15_PT105H.grib2 2026-05-04 16:44 1.0M
20260504T12Z_MSC_GDPS_AirTemp_IsbL-0200_LatLon0.15_PT105H.grib2 2026-05-04 16:44 969K
20260504T12Z_MSC_GDPS_AirTemp_IsbL-0225_LatLon0.15_PT105H.grib2 2026-05-04 16:44 968K
20260504T12Z_MSC_GDPS_AirTemp_IsbL-0250_LatLon0.15_PT105H.grib2 2026-05-04 16:44 1.0M
20260504T12Z_MSC_GDPS_AirTemp_IsbL-0275_LatLon0.15_PT105H.grib2 2026-05-04 16:44 1.0M
20260504T12Z_MSC_GDPS_AirTemp_IsbL-0300_LatLon0.15_PT105H.grib2 2026-05-04 16:44 942K
20260504T12Z_MSC_GDPS_AirTemp_IsbL-0350_LatLon0.15_PT105H.grib2 2026-05-04 16:44 928K
20260504T12Z_MSC_GDPS_AirTemp_IsbL-0400_LatLon0.15_PT105H.grib2 2026-05-04 16:44 940K
20260504T12Z_MSC_GDPS_AirTemp_IsbL-0450_LatLon0.15_PT105H.grib2 2026-05-04 16:44 965K
20260504T12Z_MSC_GDPS_AirTemp_IsbL-0500_LatLon0.15_PT105H.grib2 2026-05-04 16:44 1.0M
20260504T12Z_MSC_GDPS_AirTemp_IsbL-0550_LatLon0.15_PT105H.grib2 2026-05-04 16:44 802K
20260504T12Z_MSC_GDPS_AirTemp_IsbL-0600_LatLon0.15_PT105H.grib2 2026-05-04 16:44 895K
20260504T12Z_MSC_GDPS_AirTemp_IsbL-0650_LatLon0.15_PT105H.grib2 2026-05-04 16:44 924K
20260504T12Z_MSC_GDPS_AirTemp_IsbL-0700_LatLon0.15_PT105H.grib2 2026-05-04 16:44 959K
20260504T12Z_MSC_GDPS_AirTemp_IsbL-0750_LatLon0.15_PT105H.grib2 2026-05-04 16:44 1.0M
20260504T12Z_MSC_GDPS_AirTemp_IsbL-0800_LatLon0.15_PT105H.grib2 2026-05-04 16:44 1.1M
20260504T12Z_MSC_GDPS_AirTemp_IsbL-0850_LatLon0.15_PT105H.grib2 2026-05-04 16:44 1.1M
20260504T12Z_MSC_GDPS_AirTemp_IsbL-0875_LatLon0.15_PT105H.grib2 2026-05-04 16:44 1.2M
20260504T12Z_MSC_GDPS_AirTemp_IsbL-0900_LatLon0.15_PT105H.grib2 2026-05-04 16:44 1.2M
20260504T12Z_MSC_GDPS_AirTemp_IsbL-0925_LatLon0.15_PT105H.grib2 2026-05-04 16:44 1.1M
20260504T12Z_MSC_GDPS_AirTemp_IsbL-0950_LatLon0.15_PT105H.grib2 2026-05-04 16:44 1.1M
20260504T12Z_MSC_GDPS_AirTemp_IsbL-0970_LatLon0.15_PT105H.grib2 2026-05-04 16:44 1.1M
20260504T12Z_MSC_GDPS_AirTemp_IsbL-0985_LatLon0.15_PT105H.grib2 2026-05-04 16:44 1.1M
20260504T12Z_MSC_GDPS_AirTemp_IsbL-1000_LatLon0.15_PT105H.grib2 2026-05-04 16:44 1.1M
20260504T12Z_MSC_GDPS_AirTemp_IsbL-1015_LatLon0.15_PT105H.grib2 2026-05-04 16:44 1.1M
20260504T12Z_MSC_GDPS_Albedo_Sfc_LatLon0.15_PT105H.grib2 2026-05-04 16:44 243K
20260504T12Z_MSC_GDPS_CAPE_Sfc_LatLon0.15_PT105H.grib2 2026-05-04 16:44 3.7M
20260504T12Z_MSC_GDPS_CIN_Sfc_LatLon0.15_PT105H.grib2 2026-05-04 16:44 2.8M
20260504T12Z_MSC_GDPS_CloudWater_EAtm_LatLon0.15_PT105H.grib2 2026-05-04 16:44 543K
20260504T12Z_MSC_GDPS_ConvectivePrecip-Accum_Sfc_LatLon0.15_PT105H.grib2 2026-05-04 16:44 3.4M
20260504T12Z_MSC_GDPS_DewPointDepression_AGL-2m_LatLon0.15_PT105H.grib2 2026-05-04 16:44 767K
20260504T12Z_MSC_GDPS_DewPointDepression_IsbL-0010_LatLon0.15_PT105H.grib2 2026-05-04 16:44 87K
20260504T12Z_MSC_GDPS_DewPointDepression_IsbL-0020_LatLon0.15_PT105H.grib2 2026-05-04 16:44 81K
20260504T12Z_MSC_GDPS_DewPointDepression_IsbL-0030_LatLon0.15_PT105H.grib2 2026-05-04 16:44 92K
20260504T12Z_MSC_GDPS_DewPointDepression_IsbL-0050_LatLon0.15_PT105H.grib2 2026-05-04 16:44 381K
20260504T12Z_MSC_GDPS_DewPointDepression_IsbL-0100_LatLon0.15_PT105H.grib2 2026-05-04 16:44 402K
20260504T12Z_MSC_GDPS_DewPointDepression_IsbL-0150_LatLon0.15_PT105H.grib2 2026-05-04 16:44 490K
20260504T12Z_MSC_GDPS_DewPointDepression_IsbL-0175_LatLon0.15_PT105H.grib2 2026-05-04 16:44 596K
20260504T12Z_MSC_GDPS_DewPointDepression_IsbL-0200_LatLon0.15_PT105H.grib2 2026-05-04 16:44 705K
20260504T12Z_MSC_GDPS_DewPointDepression_IsbL-0225_LatLon0.15_PT105H.grib2 2026-05-04 16:44 781K
20260504T12Z_MSC_GDPS_DewPointDepression_IsbL-0250_LatLon0.15_PT105H.grib2 2026-05-04 16:44 873K
20260504T12Z_MSC_GDPS_DewPointDepression_IsbL-0275_LatLon0.15_PT105H.grib2 2026-05-04 16:44 890K
20260504T12Z_MSC_GDPS_DewPointDepression_IsbL-0300_LatLon0.15_PT105H.grib2 2026-05-04 16:44 935K
20260504T12Z_MSC_GDPS_DewPointDepression_IsbL-0350_LatLon0.15_PT105H.grib2 2026-05-04 16:44 958K
20260504T12Z_MSC_GDPS_DewPointDepression_IsbL-0400_LatLon0.15_PT105H.grib2 2026-05-04 16:44 1.0M
20260504T12Z_MSC_GDPS_DewPointDepression_IsbL-0450_LatLon0.15_PT105H.grib2 2026-05-04 16:44 1.0M
20260504T12Z_MSC_GDPS_DewPointDepression_IsbL-0500_LatLon0.15_PT105H.grib2 2026-05-04 16:44 1.0M
20260504T12Z_MSC_GDPS_DewPointDepression_IsbL-0550_LatLon0.15_PT105H.grib2 2026-05-04 16:44 1.0M
20260504T12Z_MSC_GDPS_DewPointDepression_IsbL-0600_LatLon0.15_PT105H.grib2 2026-05-04 16:44 1.0M
20260504T12Z_MSC_GDPS_DewPointDepression_IsbL-0650_LatLon0.15_PT105H.grib2 2026-05-04 16:44 1.1M
20260504T12Z_MSC_GDPS_DewPointDepression_IsbL-0700_LatLon0.15_PT105H.grib2 2026-05-04 16:44 1.1M
20260504T12Z_MSC_GDPS_DewPointDepression_IsbL-0750_LatLon0.15_PT105H.grib2 2026-05-04 16:44 1.1M
20260504T12Z_MSC_GDPS_DewPointDepression_IsbL-0800_LatLon0.15_PT105H.grib2 2026-05-04 16:44 1.2M
20260504T12Z_MSC_GDPS_DewPointDepression_IsbL-0850_LatLon0.15_PT105H.grib2 2026-05-04 16:44 1.2M
20260504T12Z_MSC_GDPS_DewPointDepression_IsbL-0875_LatLon0.15_PT105H.grib2 2026-05-04 16:44 1.1M
20260504T12Z_MSC_GDPS_DewPointDepression_IsbL-0900_LatLon0.15_PT105H.grib2 2026-05-04 16:44 1.1M
20260504T12Z_MSC_GDPS_DewPointDepression_IsbL-0925_LatLon0.15_PT105H.grib2 2026-05-04 16:44 1.0M
20260504T12Z_MSC_GDPS_DewPointDepression_IsbL-0950_LatLon0.15_PT105H.grib2 2026-05-04 16:44 1.0M
20260504T12Z_MSC_GDPS_DewPointDepression_IsbL-0970_LatLon0.15_PT105H.grib2 2026-05-04 16:44 1.0M
20260504T12Z_MSC_GDPS_DewPointDepression_IsbL-0985_LatLon0.15_PT105H.grib2 2026-05-04 16:44 1.0M
20260504T12Z_MSC_GDPS_DewPointDepression_IsbL-1000_LatLon0.15_PT105H.grib2 2026-05-04 16:44 1.0M
20260504T12Z_MSC_GDPS_DewPointDepression_IsbL-1015_LatLon0.15_PT105H.grib2 2026-05-04 16:44 922K
20260504T12Z_MSC_GDPS_DewPoint_AGL-2m_LatLon0.15_PT105H.grib2 2026-05-04 16:44 613K
20260504T12Z_MSC_GDPS_DownwardLongwaveRadiationFlux-Accum_Sfc_LatLon0.15_PT105H.grib2 2026-05-04 16:44 778K
20260504T12Z_MSC_GDPS_DownwardShortwaveRadiationFlux-Accum_NTAtm_LatLon0.15_PT105H.grib2 2026-05-04 16:44 287K
20260504T12Z_MSC_GDPS_DownwardShortwaveRadiationFlux-Accum_Sfc_LatLon0.15_PT105H.grib2 2026-05-04 16:44 1.0M
20260504T12Z_MSC_GDPS_FreezingRain-Accum1h_Sfc_LatLon0.15_PT105H.grib2 2026-05-04 16:44 47K
20260504T12Z_MSC_GDPS_FreezingRain-Accum3h_Sfc_LatLon0.15_PT105H.grib2 2026-05-04 16:44 57K
20260504T12Z_MSC_GDPS_FreezingRain-Accum_Sfc_LatLon0.15_PT105H.grib2 2026-05-04 16:44 374K
20260504T12Z_MSC_GDPS_GeopotentialHeight_IsbL-0001_LatLon0.15_PT105H.grib2 2026-05-04 16:44 442K
20260504T12Z_MSC_GDPS_GeopotentialHeight_IsbL-0005_LatLon0.15_PT105H.grib2 2026-05-04 16:44 486K
20260504T12Z_MSC_GDPS_GeopotentialHeight_IsbL-0010_LatLon0.15_PT105H.grib2 2026-05-04 16:44 477K
20260504T12Z_MSC_GDPS_GeopotentialHeight_IsbL-0020_LatLon0.15_PT105H.grib2 2026-05-04 16:44 415K
20260504T12Z_MSC_GDPS_GeopotentialHeight_IsbL-0030_LatLon0.15_PT105H.grib2 2026-05-04 16:44 420K
20260504T12Z_MSC_GDPS_GeopotentialHeight_IsbL-0050_LatLon0.15_PT105H.grib2 2026-05-04 16:44 577K
20260504T12Z_MSC_GDPS_GeopotentialHeight_IsbL-0100_LatLon0.15_PT105H.grib2 2026-05-04 16:44 617K
20260504T12Z_MSC_GDPS_GeopotentialHeight_IsbL-0150_LatLon0.15_PT105H.grib2 2026-05-04 16:44 638K
20260504T12Z_MSC_GDPS_GeopotentialHeight_IsbL-0175_LatLon0.15_PT105H.grib2 2026-05-04 16:44 642K
20260504T12Z_MSC_GDPS_GeopotentialHeight_IsbL-0200_LatLon0.15_PT105H.grib2 2026-05-04 16:44 646K
20260504T12Z_MSC_GDPS_GeopotentialHeight_IsbL-0225_LatLon0.15_PT105H.grib2 2026-05-04 16:44 642K
20260504T12Z_MSC_GDPS_GeopotentialHeight_IsbL-0250_LatLon0.15_PT105H.grib2 2026-05-04 16:44 644K
20260504T12Z_MSC_GDPS_GeopotentialHeight_IsbL-0275_LatLon0.15_PT105H.grib2 2026-05-04 16:44 644K
20260504T12Z_MSC_GDPS_GeopotentialHeight_IsbL-0300_LatLon0.15_PT105H.grib2 2026-05-04 16:44 643K
20260504T12Z_MSC_GDPS_GeopotentialHeight_IsbL-0350_LatLon0.15_PT105H.grib2 2026-05-04 16:44 631K
20260504T12Z_MSC_GDPS_GeopotentialHeight_IsbL-0400_LatLon0.15_PT105H.grib2 2026-05-04 16:44 624K
20260504T12Z_MSC_GDPS_GeopotentialHeight_IsbL-0450_LatLon0.15_PT105H.grib2 2026-05-04 16:44 614K
20260504T12Z_MSC_GDPS_GeopotentialHeight_IsbL-0500_LatLon0.15_PT105H.grib2 2026-05-04 16:44 535K
20260504T12Z_MSC_GDPS_GeopotentialHeight_IsbL-0550_LatLon0.15_PT105H.grib2 2026-05-04 16:44 526K
20260504T12Z_MSC_GDPS_GeopotentialHeight_IsbL-0600_LatLon0.15_PT105H.grib2 2026-05-04 16:44 525K
20260504T12Z_MSC_GDPS_GeopotentialHeight_IsbL-0650_LatLon0.15_PT105H.grib2 2026-05-04 16:44 691K
20260504T12Z_MSC_GDPS_GeopotentialHeight_IsbL-0700_LatLon0.15_PT105H.grib2 2026-05-04 16:44 692K
20260504T12Z_MSC_GDPS_GeopotentialHeight_IsbL-0750_LatLon0.15_PT105H.grib2 2026-05-04 16:44 698K
20260504T12Z_MSC_GDPS_GeopotentialHeight_IsbL-0800_LatLon0.15_PT105H.grib2 2026-05-04 16:44 707K
20260504T12Z_MSC_GDPS_GeopotentialHeight_IsbL-0850_LatLon0.15_PT105H.grib2 2026-05-04 16:44 718K
20260504T12Z_MSC_GDPS_GeopotentialHeight_IsbL-0875_LatLon0.15_PT105H.grib2 2026-05-04 16:44 724K
20260504T12Z_MSC_GDPS_GeopotentialHeight_IsbL-0900_LatLon0.15_PT105H.grib2 2026-05-04 16:44 726K
20260504T12Z_MSC_GDPS_GeopotentialHeight_IsbL-0925_LatLon0.15_PT105H.grib2 2026-05-04 16:44 736K
20260504T12Z_MSC_GDPS_GeopotentialHeight_IsbL-0950_LatLon0.15_PT105H.grib2 2026-05-04 16:44 743K
20260504T12Z_MSC_GDPS_GeopotentialHeight_IsbL-0970_LatLon0.15_PT105H.grib2 2026-05-04 16:44 754K
20260504T12Z_MSC_GDPS_GeopotentialHeight_IsbL-0985_LatLon0.15_PT105H.grib2 2026-05-04 16:44 767K
20260504T12Z_MSC_GDPS_GeopotentialHeight_IsbL-1000_LatLon0.15_PT105H.grib2 2026-05-04 16:44 788K
20260504T12Z_MSC_GDPS_GeopotentialHeight_IsbL-1015_LatLon0.15_PT105H.grib2 2026-05-04 16:44 810K
20260504T12Z_MSC_GDPS_IcePellets-Accum1h_Sfc_LatLon0.15_PT105H.grib2 2026-05-04 16:44 14K
20260504T12Z_MSC_GDPS_IcePellets-Accum3h_Sfc_LatLon0.15_PT105H.grib2 2026-05-04 16:44 14K
20260504T12Z_MSC_GDPS_IcePellets-Accum_Sfc_LatLon0.15_PT105H.grib2 2026-05-04 16:44 111K
20260504T12Z_MSC_GDPS_KIndex_Sfc_LatLon0.15_PT105H.grib2 2026-05-04 16:44 6.5M
20260504T12Z_MSC_GDPS_LatentHeatNetFlux_Sfc_LatLon0.15_PT105H.grib2 2026-05-04 16:44 680K
20260504T12Z_MSC_GDPS_LiftedIndex-MU-VT_IsbL-0500_LatLon0.15_PT105H.grib2 2026-05-04 16:44 5.4M
20260504T12Z_MSC_GDPS_NetLongwaveRadiationFlux-Accum_Sfc_LatLon0.15_PT105H.grib2 2026-05-04 16:44 1.0M
20260504T12Z_MSC_GDPS_NetShortwaveRadiationFlux-Accum_Sfc_LatLon0.15_PT105H.grib2 2026-05-04 16:44 943K
20260504T12Z_MSC_GDPS_O3MixingRatio_Sfc_LatLon0.15_PT105H.grib2 2026-05-04 17:18 1.9M
20260504T12Z_MSC_GDPS_O3_EAtm_LatLon0.15_PT105H.grib2 2026-05-04 17:18 2.4M
20260504T12Z_MSC_GDPS_PlanetaryBoundaryLayerHeight_Sfc_LatLon0.15_PT105H.grib2 2026-05-04 16:44 2.4M
20260504T12Z_MSC_GDPS_Precip-Accum1h_Sfc_LatLon0.15_PT105H.grib2 2026-05-04 16:44 3.2M
20260504T12Z_MSC_GDPS_Precip-Accum3h_Sfc_LatLon0.15_PT105H.grib2 2026-05-04 16:44 3.5M
20260504T12Z_MSC_GDPS_Precip-Accum_Sfc_LatLon0.15_PT105H.grib2 2026-05-04 16:44 5.1M
20260504T12Z_MSC_GDPS_PrecipRate_Sfc_LatLon0.15_PT105H.grib2 2026-05-04 16:44 3.0M
20260504T12Z_MSC_GDPS_PrecipType-Instant_Sfc_LatLon0.15_PT105H.grib2 2026-05-04 16:44 1.5M
20260504T12Z_MSC_GDPS_Pressure_MSL_LatLon0.15_PT105H.grib2 2026-05-04 16:44 725K
20260504T12Z_MSC_GDPS_Pressure_Sfc_LatLon0.15_PT105H.grib2 2026-05-04 16:44 1.1M
20260504T12Z_MSC_GDPS_RadiativeTemp_Sfc_LatLon0.15_PT105H.grib2 2026-05-04 16:44 662K
20260504T12Z_MSC_GDPS_Rain-Accum1h_Sfc_LatLon0.15_PT105H.grib2 2026-05-04 16:44 1.7M
20260504T12Z_MSC_GDPS_Rain-Accum3h_Sfc_LatLon0.15_PT105H.grib2 2026-05-04 16:44 1.7M
20260504T12Z_MSC_GDPS_Rain-Accum_Sfc_LatLon0.15_PT105H.grib2 2026-05-04 16:44 4.0M
20260504T12Z_MSC_GDPS_RelativeHumidity_AGL-2m_LatLon0.15_PT105H.grib2 2026-05-04 16:44 1.1M
20260504T12Z_MSC_GDPS_RelativeHumidity_IsbL-0010_LatLon0.15_PT105H.grib2 2026-05-04 16:44 138K
20260504T12Z_MSC_GDPS_RelativeHumidity_IsbL-0020_LatLon0.15_PT105H.grib2 2026-05-04 16:44 169K
20260504T12Z_MSC_GDPS_RelativeHumidity_IsbL-0030_LatLon0.15_PT105H.grib2 2026-05-04 16:44 185K
20260504T12Z_MSC_GDPS_RelativeHumidity_IsbL-0050_LatLon0.15_PT105H.grib2 2026-05-04 16:44 334K
20260504T12Z_MSC_GDPS_RelativeHumidity_IsbL-0100_LatLon0.15_PT105H.grib2 2026-05-04 16:44 507K
20260504T12Z_MSC_GDPS_RelativeHumidity_IsbL-0150_LatLon0.15_PT105H.grib2 2026-05-04 16:44 678K
20260504T12Z_MSC_GDPS_RelativeHumidity_IsbL-0175_LatLon0.15_PT105H.grib2 2026-05-04 16:44 804K
20260504T12Z_MSC_GDPS_RelativeHumidity_IsbL-0200_LatLon0.15_PT105H.grib2 2026-05-04 16:44 718K
20260504T12Z_MSC_GDPS_RelativeHumidity_IsbL-0225_LatLon0.15_PT105H.grib2 2026-05-04 16:44 796K
20260504T12Z_MSC_GDPS_RelativeHumidity_IsbL-0250_LatLon0.15_PT105H.grib2 2026-05-04 16:44 862K
20260504T12Z_MSC_GDPS_RelativeHumidity_IsbL-0275_LatLon0.15_PT105H.grib2 2026-05-04 16:44 879K
20260504T12Z_MSC_GDPS_RelativeHumidity_IsbL-0300_LatLon0.15_PT105H.grib2 2026-05-04 16:44 919K
20260504T12Z_MSC_GDPS_RelativeHumidity_IsbL-0350_LatLon0.15_PT105H.grib2 2026-05-04 16:44 939K
20260504T12Z_MSC_GDPS_RelativeHumidity_IsbL-0400_LatLon0.15_PT105H.grib2 2026-05-04 16:44 966K
20260504T12Z_MSC_GDPS_RelativeHumidity_IsbL-0450_LatLon0.15_PT105H.grib2 2026-05-04 16:44 1.0M
20260504T12Z_MSC_GDPS_RelativeHumidity_IsbL-0500_LatLon0.15_PT105H.grib2 2026-05-04 16:44 1.0M
20260504T12Z_MSC_GDPS_RelativeHumidity_IsbL-0550_LatLon0.15_PT105H.grib2 2026-05-04 16:44 1.0M
20260504T12Z_MSC_GDPS_RelativeHumidity_IsbL-0600_LatLon0.15_PT105H.grib2 2026-05-04 16:44 1.0M
20260504T12Z_MSC_GDPS_RelativeHumidity_IsbL-0650_LatLon0.15_PT105H.grib2 2026-05-04 16:44 1.1M
20260504T12Z_MSC_GDPS_RelativeHumidity_IsbL-0700_LatLon0.15_PT105H.grib2 2026-05-04 16:44 1.1M
20260504T12Z_MSC_GDPS_RelativeHumidity_IsbL-0750_LatLon0.15_PT105H.grib2 2026-05-04 16:44 1.2M
20260504T12Z_MSC_GDPS_RelativeHumidity_IsbL-0800_LatLon0.15_PT105H.grib2 2026-05-04 16:44 1.2M
20260504T12Z_MSC_GDPS_RelativeHumidity_IsbL-0850_LatLon0.15_PT105H.grib2 2026-05-04 16:44 1.3M
20260504T12Z_MSC_GDPS_RelativeHumidity_IsbL-0875_LatLon0.15_PT105H.grib2 2026-05-04 16:44 1.3M
20260504T12Z_MSC_GDPS_RelativeHumidity_IsbL-0900_LatLon0.15_PT105H.grib2 2026-05-04 16:44 1.2M
20260504T12Z_MSC_GDPS_RelativeHumidity_IsbL-0925_LatLon0.15_PT105H.grib2 2026-05-04 16:44 1.2M
20260504T12Z_MSC_GDPS_RelativeHumidity_IsbL-0950_LatLon0.15_PT105H.grib2 2026-05-04 16:44 1.2M
20260504T12Z_MSC_GDPS_RelativeHumidity_IsbL-0970_LatLon0.15_PT105H.grib2 2026-05-04 16:44 1.2M
20260504T12Z_MSC_GDPS_RelativeHumidity_IsbL-0985_LatLon0.15_PT105H.grib2 2026-05-04 16:44 1.1M
20260504T12Z_MSC_GDPS_RelativeHumidity_IsbL-1000_LatLon0.15_PT105H.grib2 2026-05-04 16:44 1.1M
20260504T12Z_MSC_GDPS_RelativeHumidity_IsbL-1015_LatLon0.15_PT105H.grib2 2026-05-04 16:44 1.0M
20260504T12Z_MSC_GDPS_RelativeVorticity_IsbL-0200_LatLon0.15_PT105H.grib2 2026-05-04 16:44 1.2M
20260504T12Z_MSC_GDPS_RelativeVorticity_IsbL-0250_LatLon0.15_PT105H.grib2 2026-05-04 16:44 1.3M
20260504T12Z_MSC_GDPS_RelativeVorticity_IsbL-0500_LatLon0.15_PT105H.grib2 2026-05-04 16:44 1.4M
20260504T12Z_MSC_GDPS_RelativeVorticity_IsbL-0700_LatLon0.15_PT105H.grib2 2026-05-04 16:44 1.3M
20260504T12Z_MSC_GDPS_RelativeVorticity_IsbL-0850_LatLon0.15_PT105H.grib2 2026-05-04 16:44 1.6M
20260504T12Z_MSC_GDPS_Runoff-Accum_Sfc_LatLon0.15_PT105H.grib2 2026-05-04 16:44 133K
20260504T12Z_MSC_GDPS_SensibleHeatNetFlux_Sfc_LatLon0.15_PT105H.grib2 2026-05-04 16:44 455K
20260504T12Z_MSC_GDPS_ShowalterIndex_IsbL-0500_LatLon0.15_PT105H.grib2 2026-05-04 16:44 6.2M
20260504T12Z_MSC_GDPS_Snow-Accum1h_Sfc_LatLon0.15_PT105H.grib2 2026-05-04 16:44 1.0M
20260504T12Z_MSC_GDPS_Snow-Accum3h_Sfc_LatLon0.15_PT105H.grib2 2026-05-04 16:44 945K
20260504T12Z_MSC_GDPS_Snow-Accum_Sfc_LatLon0.15_PT105H.grib2 2026-05-04 16:44 2.1M
20260504T12Z_MSC_GDPS_SnowDensity_Sfc_LatLon0.15_PT105H.grib2 2026-05-04 16:44 258K
20260504T12Z_MSC_GDPS_SnowDepth_Sfc_LatLon0.15_PT105H.grib2 2026-05-04 16:44 1.7M
20260504T12Z_MSC_GDPS_SoilTemp_DBS-0to10cm_LatLon0.15_PT105H.grib2 2026-05-04 16:44 513K
20260504T12Z_MSC_GDPS_SoilTemp_Sfc_LatLon0.15_PT105H.grib2 2026-05-04 16:44 580K
20260504T12Z_MSC_GDPS_SoilVolumetricIceContent_Sfc_LatLon0.15_PT105H.grib2 2026-05-04 16:44 181K
20260504T12Z_MSC_GDPS_SoilVolumetricWaterContent_DBS-0to10cm_LatLon0.15_PT105H.grib2 2026-05-04 16:44 598K
20260504T12Z_MSC_GDPS_SoilVolumetricWaterContent_DBS-0to1cm_LatLon0.15_PT105H.grib2 2026-05-04 16:44 655K
20260504T12Z_MSC_GDPS_SpecificHumidity_AGL-120m_LatLon0.15_PT105H.grib2 2026-05-04 16:44 1.1M
20260504T12Z_MSC_GDPS_SpecificHumidity_AGL-2m_LatLon0.15_PT105H.grib2 2026-05-04 16:44 1.2M
20260504T12Z_MSC_GDPS_SpecificHumidity_AGL-40m_LatLon0.15_PT105H.grib2 2026-05-04 16:44 1.1M
20260504T12Z_MSC_GDPS_SpecificHumidity_AGL-80m_LatLon0.15_PT105H.grib2 2026-05-04 16:44 1.1M
20260504T12Z_MSC_GDPS_SpecificHumidity_IsbL-0001_LatLon0.15_PT105H.grib2 2026-05-04 16:44 1.3M
20260504T12Z_MSC_GDPS_SpecificHumidity_IsbL-0005_LatLon0.15_PT105H.grib2 2026-05-04 16:44 1.2M
20260504T12Z_MSC_GDPS_SpecificHumidity_IsbL-0010_LatLon0.15_PT105H.grib2 2026-05-04 16:44 1.3M
20260504T12Z_MSC_GDPS_SpecificHumidity_IsbL-0020_LatLon0.15_PT105H.grib2 2026-05-04 16:44 1.3M
20260504T12Z_MSC_GDPS_SpecificHumidity_IsbL-0030_LatLon0.15_PT105H.grib2 2026-05-04 16:44 1.2M
20260504T12Z_MSC_GDPS_SpecificHumidity_IsbL-0050_LatLon0.15_PT105H.grib2 2026-05-04 16:44 1.6M
20260504T12Z_MSC_GDPS_SpecificHumidity_IsbL-0100_LatLon0.15_PT105H.grib2 2026-05-04 16:44 1.3M
20260504T12Z_MSC_GDPS_SpecificHumidity_IsbL-0150_LatLon0.15_PT105H.grib2 2026-05-04 16:44 1.3M
20260504T12Z_MSC_GDPS_SpecificHumidity_IsbL-0175_LatLon0.15_PT105H.grib2 2026-05-04 16:44 1.3M
20260504T12Z_MSC_GDPS_SpecificHumidity_IsbL-0200_LatLon0.15_PT105H.grib2 2026-05-04 16:44 1.3M
20260504T12Z_MSC_GDPS_SpecificHumidity_IsbL-0225_LatLon0.15_PT105H.grib2 2026-05-04 16:44 1.3M
20260504T12Z_MSC_GDPS_SpecificHumidity_IsbL-0250_LatLon0.15_PT105H.grib2 2026-05-04 16:44 1.2M
20260504T12Z_MSC_GDPS_SpecificHumidity_IsbL-0275_LatLon0.15_PT105H.grib2 2026-05-04 16:44 1.3M
20260504T12Z_MSC_GDPS_SpecificHumidity_IsbL-0300_LatLon0.15_PT105H.grib2 2026-05-04 16:44 1.2M
20260504T12Z_MSC_GDPS_SpecificHumidity_IsbL-0350_LatLon0.15_PT105H.grib2 2026-05-04 16:44 1.2M
20260504T12Z_MSC_GDPS_SpecificHumidity_IsbL-0400_LatLon0.15_PT105H.grib2 2026-05-04 16:44 1.5M
20260504T12Z_MSC_GDPS_SpecificHumidity_IsbL-0450_LatLon0.15_PT105H.grib2 2026-05-04 16:44 1.3M
20260504T12Z_MSC_GDPS_SpecificHumidity_IsbL-0500_LatLon0.15_PT105H.grib2 2026-05-04 16:44 1.5M
20260504T12Z_MSC_GDPS_SpecificHumidity_IsbL-0550_LatLon0.15_PT105H.grib2 2026-05-04 16:44 1.6M
20260504T12Z_MSC_GDPS_SpecificHumidity_IsbL-0600_LatLon0.15_PT105H.grib2 2026-05-04 16:44 1.4M
20260504T12Z_MSC_GDPS_SpecificHumidity_IsbL-0650_LatLon0.15_PT105H.grib2 2026-05-04 16:44 1.5M
20260504T12Z_MSC_GDPS_SpecificHumidity_IsbL-0700_LatLon0.15_PT105H.grib2 2026-05-04 16:44 1.6M
20260504T12Z_MSC_GDPS_SpecificHumidity_IsbL-0750_LatLon0.15_PT105H.grib2 2026-05-04 16:44 1.7M
20260504T12Z_MSC_GDPS_SpecificHumidity_IsbL-0800_LatLon0.15_PT105H.grib2 2026-05-04 16:44 1.9M
20260504T12Z_MSC_GDPS_SpecificHumidity_IsbL-0850_LatLon0.15_PT105H.grib2 2026-05-04 16:44 2.0M
20260504T12Z_MSC_GDPS_SpecificHumidity_IsbL-0875_LatLon0.15_PT105H.grib2 2026-05-04 16:44 2.0M
20260504T12Z_MSC_GDPS_SpecificHumidity_IsbL-0900_LatLon0.15_PT105H.grib2 2026-05-04 16:44 1.9M
20260504T12Z_MSC_GDPS_SpecificHumidity_IsbL-0925_LatLon0.15_PT105H.grib2 2026-05-04 16:44 1.6M
20260504T12Z_MSC_GDPS_SpecificHumidity_IsbL-0950_LatLon0.15_PT105H.grib2 2026-05-04 16:44 1.6M
20260504T12Z_MSC_GDPS_SpecificHumidity_IsbL-0970_LatLon0.15_PT105H.grib2 2026-05-04 16:44 1.5M
20260504T12Z_MSC_GDPS_SpecificHumidity_IsbL-0985_LatLon0.15_PT105H.grib2 2026-05-04 16:44 1.5M
20260504T12Z_MSC_GDPS_SpecificHumidity_IsbL-1000_LatLon0.15_PT105H.grib2 2026-05-04 16:44 1.5M
20260504T12Z_MSC_GDPS_SpecificHumidity_IsbL-1015_LatLon0.15_PT105H.grib2 2026-05-04 16:44 1.5M
20260504T12Z_MSC_GDPS_SpecificHumidity_Sfc_LatLon0.15_PT105H.grib2 2026-05-04 16:44 670K
20260504T12Z_MSC_GDPS_Thickness_IsbL-0850to0700_LatLon0.15_PT105H.grib2 2026-05-04 16:44 474K
20260504T12Z_MSC_GDPS_Thickness_IsbL-1000to0500_LatLon0.15_PT105H.grib2 2026-05-04 16:44 378K
20260504T12Z_MSC_GDPS_Thickness_IsbL-1000to0850_LatLon0.15_PT105H.grib2 2026-05-04 16:44 493K
20260504T12Z_MSC_GDPS_TotalCloudCover_Sfc_LatLon0.15_PT105H.grib2 2026-05-04 16:44 821K
20260504T12Z_MSC_GDPS_TotalTotalsIndex_Sfc_LatLon0.15_PT105H.grib2 2026-05-04 16:44 6.2M
20260504T12Z_MSC_GDPS_UVIndex-ClearSky_Sfc_LatLon0.15_PT105H.grib2 2026-05-04 17:18 1.0M
20260504T12Z_MSC_GDPS_UVIndex_Sfc_LatLon0.15_PT105H.grib2 2026-05-04 17:18 1.5M
20260504T12Z_MSC_GDPS_UpwardLongwaveRadiationFlux_NTAtm_LatLon0.15_PT105H.grib2 2026-05-04 16:44 830K
20260504T12Z_MSC_GDPS_VerticalVelocity_IsbL-0200_LatLon0.15_PT105H.grib2 2026-05-04 16:44 943K
20260504T12Z_MSC_GDPS_VerticalVelocity_IsbL-0250_LatLon0.15_PT105H.grib2 2026-05-04 16:44 1.0M
20260504T12Z_MSC_GDPS_VerticalVelocity_IsbL-0500_LatLon0.15_PT105H.grib2 2026-05-04 16:44 1.3M
20260504T12Z_MSC_GDPS_VerticalVelocity_IsbL-0600_LatLon0.15_PT105H.grib2 2026-05-04 16:44 1.1M
20260504T12Z_MSC_GDPS_VerticalVelocity_IsbL-0700_LatLon0.15_PT105H.grib2 2026-05-04 16:44 1.1M
20260504T12Z_MSC_GDPS_VerticalVelocity_IsbL-0850_LatLon0.15_PT105H.grib2 2026-05-04 16:44 1.3M
20260504T12Z_MSC_GDPS_WindChill_Sfc_LatLon0.15_PT105H.grib2 2026-05-04 16:44 5.3M
20260504T12Z_MSC_GDPS_WindDir_AGL-10m_LatLon0.15_PT105H.grib2 2026-05-04 16:44 1.3M
20260504T12Z_MSC_GDPS_WindDir_AGL-120m_LatLon0.15_PT105H.grib2 2026-05-04 16:44 1.3M
20260504T12Z_MSC_GDPS_WindDir_AGL-40m_LatLon0.15_PT105H.grib2 2026-05-04 16:44 1.4M
20260504T12Z_MSC_GDPS_WindDir_AGL-80m_LatLon0.15_PT105H.grib2 2026-05-04 16:44 1.4M
20260504T12Z_MSC_GDPS_WindDir_IsbL-0001_LatLon0.15_PT105H.grib2 2026-05-04 16:44 667K
20260504T12Z_MSC_GDPS_WindDir_IsbL-0005_LatLon0.15_PT105H.grib2 2026-05-04 16:44 810K
20260504T12Z_MSC_GDPS_WindDir_IsbL-0010_LatLon0.15_PT105H.grib2 2026-05-04 16:44 848K
20260504T12Z_MSC_GDPS_WindDir_IsbL-0020_LatLon0.15_PT105H.grib2 2026-05-04 16:44 944K
20260504T12Z_MSC_GDPS_WindDir_IsbL-0030_LatLon0.15_PT105H.grib2 2026-05-04 16:44 941K
20260504T12Z_MSC_GDPS_WindDir_IsbL-0050_LatLon0.15_PT105H.grib2 2026-05-04 16:44 955K
20260504T12Z_MSC_GDPS_WindDir_IsbL-0100_LatLon0.15_PT105H.grib2 2026-05-04 16:44 1.0M
20260504T12Z_MSC_GDPS_WindDir_IsbL-0150_LatLon0.15_PT105H.grib2 2026-05-04 16:44 1.0M
20260504T12Z_MSC_GDPS_WindDir_IsbL-0175_LatLon0.15_PT105H.grib2 2026-05-04 16:44 1.1M
20260504T12Z_MSC_GDPS_WindDir_IsbL-0200_LatLon0.15_PT105H.grib2 2026-05-04 16:44 1.1M
20260504T12Z_MSC_GDPS_WindDir_IsbL-0225_LatLon0.15_PT105H.grib2 2026-05-04 16:44 1.1M
20260504T12Z_MSC_GDPS_WindDir_IsbL-0250_LatLon0.15_PT105H.grib2 2026-05-04 16:44 1.1M
20260504T12Z_MSC_GDPS_WindDir_IsbL-0275_LatLon0.15_PT105H.grib2 2026-05-04 16:44 1.2M
20260504T12Z_MSC_GDPS_WindDir_IsbL-0300_LatLon0.15_PT105H.grib2 2026-05-04 16:44 1.2M
20260504T12Z_MSC_GDPS_WindDir_IsbL-0350_LatLon0.15_PT105H.grib2 2026-05-04 16:44 1.2M
20260504T12Z_MSC_GDPS_WindDir_IsbL-0400_LatLon0.15_PT105H.grib2 2026-05-04 16:44 1.3M
20260504T12Z_MSC_GDPS_WindDir_IsbL-0450_LatLon0.15_PT105H.grib2 2026-05-04 16:44 1.3M
20260504T12Z_MSC_GDPS_WindDir_IsbL-0500_LatLon0.15_PT105H.grib2 2026-05-04 16:44 1.4M
20260504T12Z_MSC_GDPS_WindDir_IsbL-0550_LatLon0.15_PT105H.grib2 2026-05-04 16:44 1.4M
20260504T12Z_MSC_GDPS_WindDir_IsbL-0600_LatLon0.15_PT105H.grib2 2026-05-04 16:44 1.4M
20260504T12Z_MSC_GDPS_WindDir_IsbL-0650_LatLon0.15_PT105H.grib2 2026-05-04 16:44 1.5M
20260504T12Z_MSC_GDPS_WindDir_IsbL-0700_LatLon0.15_PT105H.grib2 2026-05-04 16:44 1.6M
20260504T12Z_MSC_GDPS_WindDir_IsbL-0750_LatLon0.15_PT105H.grib2 2026-05-04 16:44 1.7M
20260504T12Z_MSC_GDPS_WindDir_IsbL-0800_LatLon0.15_PT105H.grib2 2026-05-04 16:44 1.8M
20260504T12Z_MSC_GDPS_WindDir_IsbL-0850_LatLon0.15_PT105H.grib2 2026-05-04 16:44 1.9M
20260504T12Z_MSC_GDPS_WindDir_IsbL-0875_LatLon0.15_PT105H.grib2 2026-05-04 16:44 1.9M
20260504T12Z_MSC_GDPS_WindDir_IsbL-0900_LatLon0.15_PT105H.grib2 2026-05-04 16:44 2.0M
20260504T12Z_MSC_GDPS_WindDir_IsbL-0925_LatLon0.15_PT105H.grib2 2026-05-04 16:44 2.0M
20260504T12Z_MSC_GDPS_WindDir_IsbL-0950_LatLon0.15_PT105H.grib2 2026-05-04 16:44 2.0M
20260504T12Z_MSC_GDPS_WindDir_IsbL-0970_LatLon0.15_PT105H.grib2 2026-05-04 16:44 2.0M
20260504T12Z_MSC_GDPS_WindDir_IsbL-0985_LatLon0.15_PT105H.grib2 2026-05-04 16:44 2.0M
20260504T12Z_MSC_GDPS_WindDir_IsbL-1000_LatLon0.15_PT105H.grib2 2026-05-04 16:44 2.1M
20260504T12Z_MSC_GDPS_WindDir_IsbL-1015_LatLon0.15_PT105H.grib2 2026-05-04 16:44 2.0M
20260504T12Z_MSC_GDPS_WindGust-Max_AGL-10m_LatLon0.15_PT105H.grib2 2026-05-04 16:44 2.2M
20260504T12Z_MSC_GDPS_WindGust-Min_AGL-10m_LatLon0.15_PT105H.grib2 2026-05-04 16:44 2.2M
20260504T12Z_MSC_GDPS_WindGust_AGL-10m_LatLon0.15_PT105H.grib2 2026-05-04 16:44 2.2M
20260504T12Z_MSC_GDPS_WindSpeed_AGL-10m_LatLon0.15_PT105H.grib2 2026-05-04 16:44 1.1M
20260504T12Z_MSC_GDPS_WindSpeed_AGL-120m_LatLon0.15_PT105H.grib2 2026-05-04 16:44 1.2M
20260504T12Z_MSC_GDPS_WindSpeed_AGL-40m_LatLon0.15_PT105H.grib2 2026-05-04 16:44 1.2M
20260504T12Z_MSC_GDPS_WindSpeed_AGL-80m_LatLon0.15_PT105H.grib2 2026-05-04 16:44 1.2M
20260504T12Z_MSC_GDPS_WindSpeed_IsbL-0001_LatLon0.15_PT105H.grib2 2026-05-04 16:44 654K
20260504T12Z_MSC_GDPS_WindSpeed_IsbL-0005_LatLon0.15_PT105H.grib2 2026-05-04 16:44 701K
20260504T12Z_MSC_GDPS_WindSpeed_IsbL-0010_LatLon0.15_PT105H.grib2 2026-05-04 16:44 630K
20260504T12Z_MSC_GDPS_WindSpeed_IsbL-0020_LatLon0.15_PT105H.grib2 2026-05-04 16:44 665K
20260504T12Z_MSC_GDPS_WindSpeed_IsbL-0030_LatLon0.15_PT105H.grib2 2026-05-04 16:44 866K
20260504T12Z_MSC_GDPS_WindSpeed_IsbL-0050_LatLon0.15_PT105H.grib2 2026-05-04 16:44 900K
20260504T12Z_MSC_GDPS_WindSpeed_IsbL-0100_LatLon0.15_PT105H.grib2 2026-05-04 16:44 1.1M
20260504T12Z_MSC_GDPS_WindSpeed_IsbL-0150_LatLon0.15_PT105H.grib2 2026-05-04 16:44 943K
20260504T12Z_MSC_GDPS_WindSpeed_IsbL-0175_LatLon0.15_PT105H.grib2 2026-05-04 16:44 1.0M
20260504T12Z_MSC_GDPS_WindSpeed_IsbL-0200_LatLon0.15_PT105H.grib2 2026-05-04 16:44 1.1M
20260504T12Z_MSC_GDPS_WindSpeed_IsbL-0225_LatLon0.15_PT105H.grib2 2026-05-04 16:44 1.1M
20260504T12Z_MSC_GDPS_WindSpeed_IsbL-0250_LatLon0.15_PT105H.grib2 2026-05-04 16:44 1.1M
20260504T12Z_MSC_GDPS_WindSpeed_IsbL-0275_LatLon0.15_PT105H.grib2 2026-05-04 16:44 1.1M
20260504T12Z_MSC_GDPS_WindSpeed_IsbL-0300_LatLon0.15_PT105H.grib2 2026-05-04 16:44 1.1M
20260504T12Z_MSC_GDPS_WindSpeed_IsbL-0350_LatLon0.15_PT105H.grib2 2026-05-04 16:44 1.1M
20260504T12Z_MSC_GDPS_WindSpeed_IsbL-0400_LatLon0.15_PT105H.grib2 2026-05-04 16:44 1.1M
20260504T12Z_MSC_GDPS_WindSpeed_IsbL-0450_LatLon0.15_PT105H.grib2 2026-05-04 16:44 1.1M
20260504T12Z_MSC_GDPS_WindSpeed_IsbL-0500_LatLon0.15_PT105H.grib2 2026-05-04 16:44 1.1M
20260504T12Z_MSC_GDPS_WindSpeed_IsbL-0550_LatLon0.15_PT105H.grib2 2026-05-04 16:44 1.1M
20260504T12Z_MSC_GDPS_WindSpeed_IsbL-0600_LatLon0.15_PT105H.grib2 2026-05-04 16:44 1.1M
20260504T12Z_MSC_GDPS_WindSpeed_IsbL-0650_LatLon0.15_PT105H.grib2 2026-05-04 16:44 1.4M
20260504T12Z_MSC_GDPS_WindSpeed_IsbL-0700_LatLon0.15_PT105H.grib2 2026-05-04 16:44 1.5M
20260504T12Z_MSC_GDPS_WindSpeed_IsbL-0750_LatLon0.15_PT105H.grib2 2026-05-04 16:44 1.6M
20260504T12Z_MSC_GDPS_WindSpeed_IsbL-0800_LatLon0.15_PT105H.grib2 2026-05-04 16:44 1.6M
20260504T12Z_MSC_GDPS_WindSpeed_IsbL-0850_LatLon0.15_PT105H.grib2 2026-05-04 16:44 1.7M
20260504T12Z_MSC_GDPS_WindSpeed_IsbL-0875_LatLon0.15_PT105H.grib2 2026-05-04 16:44 1.8M
20260504T12Z_MSC_GDPS_WindSpeed_IsbL-0900_LatLon0.15_PT105H.grib2 2026-05-04 16:44 1.8M
20260504T12Z_MSC_GDPS_WindSpeed_IsbL-0925_LatLon0.15_PT105H.grib2 2026-05-04 16:44 1.8M
20260504T12Z_MSC_GDPS_WindSpeed_IsbL-0950_LatLon0.15_PT105H.grib2 2026-05-04 16:44 1.9M
20260504T12Z_MSC_GDPS_WindSpeed_IsbL-0970_LatLon0.15_PT105H.grib2 2026-05-04 16:44 1.9M
20260504T12Z_MSC_GDPS_WindSpeed_IsbL-0985_LatLon0.15_PT105H.grib2 2026-05-04 16:44 1.9M
20260504T12Z_MSC_GDPS_WindSpeed_IsbL-1000_LatLon0.15_PT105H.grib2 2026-05-04 16:44 1.8M
20260504T12Z_MSC_GDPS_WindSpeed_IsbL-1015_LatLon0.15_PT105H.grib2 2026-05-04 16:44 1.8M
20260504T12Z_MSC_GDPS_WindU_AGL-10m_LatLon0.15_PT105H.grib2 2026-05-04 16:44 1.3M
20260504T12Z_MSC_GDPS_WindU_AGL-120m_LatLon0.15_PT105H.grib2 2026-05-04 16:44 1.0M
20260504T12Z_MSC_GDPS_WindU_AGL-40m_LatLon0.15_PT105H.grib2 2026-05-04 16:44 970K
20260504T12Z_MSC_GDPS_WindU_AGL-80m_LatLon0.15_PT105H.grib2 2026-05-04 16:44 1.0M
20260504T12Z_MSC_GDPS_WindU_IsbL-0001_LatLon0.15_PT105H.grib2 2026-05-04 16:44 507K
20260504T12Z_MSC_GDPS_WindU_IsbL-0005_LatLon0.15_PT105H.grib2 2026-05-04 16:44 700K
20260504T12Z_MSC_GDPS_WindU_IsbL-0010_LatLon0.15_PT105H.grib2 2026-05-04 16:44 703K
20260504T12Z_MSC_GDPS_WindU_IsbL-0020_LatLon0.15_PT105H.grib2 2026-05-04 16:44 732K
20260504T12Z_MSC_GDPS_WindU_IsbL-0030_LatLon0.15_PT105H.grib2 2026-05-04 16:44 742K
20260504T12Z_MSC_GDPS_WindU_IsbL-0050_LatLon0.15_PT105H.grib2 2026-05-04 16:44 765K
20260504T12Z_MSC_GDPS_WindU_IsbL-0100_LatLon0.15_PT105H.grib2 2026-05-04 16:44 926K
20260504T12Z_MSC_GDPS_WindU_IsbL-0150_LatLon0.15_PT105H.grib2 2026-05-04 16:44 1.0M
20260504T12Z_MSC_GDPS_WindU_IsbL-0175_LatLon0.15_PT105H.grib2 2026-05-04 16:44 818K
20260504T12Z_MSC_GDPS_WindU_IsbL-0200_LatLon0.15_PT105H.grib2 2026-05-04 16:44 847K
20260504T12Z_MSC_GDPS_WindU_IsbL-0225_LatLon0.15_PT105H.grib2 2026-05-04 16:44 854K
20260504T12Z_MSC_GDPS_WindU_IsbL-0250_LatLon0.15_PT105H.grib2 2026-05-04 16:44 851K
20260504T12Z_MSC_GDPS_WindU_IsbL-0275_LatLon0.15_PT105H.grib2 2026-05-04 16:44 873K
20260504T12Z_MSC_GDPS_WindU_IsbL-0300_LatLon0.15_PT105H.grib2 2026-05-04 16:44 863K
20260504T12Z_MSC_GDPS_WindU_IsbL-0350_LatLon0.15_PT105H.grib2 2026-05-04 16:44 882K
20260504T12Z_MSC_GDPS_WindU_IsbL-0400_LatLon0.15_PT105H.grib2 2026-05-04 16:44 886K
20260504T12Z_MSC_GDPS_WindU_IsbL-0450_LatLon0.15_PT105H.grib2 2026-05-04 16:44 1.1M
20260504T12Z_MSC_GDPS_WindU_IsbL-0500_LatLon0.15_PT105H.grib2 2026-05-04 16:44 1.1M
20260504T12Z_MSC_GDPS_WindU_IsbL-0550_LatLon0.15_PT105H.grib2 2026-05-04 16:44 1.1M
20260504T12Z_MSC_GDPS_WindU_IsbL-0600_LatLon0.15_PT105H.grib2 2026-05-04 16:44 1.1M
20260504T12Z_MSC_GDPS_WindU_IsbL-0650_LatLon0.15_PT105H.grib2 2026-05-04 16:44 1.2M
20260504T12Z_MSC_GDPS_WindU_IsbL-0700_LatLon0.15_PT105H.grib2 2026-05-04 16:44 1.2M
20260504T12Z_MSC_GDPS_WindU_IsbL-0750_LatLon0.15_PT105H.grib2 2026-05-04 16:44 1.3M
20260504T12Z_MSC_GDPS_WindU_IsbL-0800_LatLon0.15_PT105H.grib2 2026-05-04 16:44 1.4M
20260504T12Z_MSC_GDPS_WindU_IsbL-0850_LatLon0.15_PT105H.grib2 2026-05-04 16:44 1.4M
20260504T12Z_MSC_GDPS_WindU_IsbL-0875_LatLon0.15_PT105H.grib2 2026-05-04 16:44 1.5M
20260504T12Z_MSC_GDPS_WindU_IsbL-0900_LatLon0.15_PT105H.grib2 2026-05-04 16:44 1.5M
20260504T12Z_MSC_GDPS_WindU_IsbL-0925_LatLon0.15_PT105H.grib2 2026-05-04 16:44 1.5M
20260504T12Z_MSC_GDPS_WindU_IsbL-0950_LatLon0.15_PT105H.grib2 2026-05-04 16:44 1.4M
20260504T12Z_MSC_GDPS_WindU_IsbL-0970_LatLon0.15_PT105H.grib2 2026-05-04 16:44 1.4M
20260504T12Z_MSC_GDPS_WindU_IsbL-0985_LatLon0.15_PT105H.grib2 2026-05-04 16:44 1.4M
20260504T12Z_MSC_GDPS_WindU_IsbL-1000_LatLon0.15_PT105H.grib2 2026-05-04 16:44 1.4M
20260504T12Z_MSC_GDPS_WindU_IsbL-1015_LatLon0.15_PT105H.grib2 2026-05-04 16:44 1.3M
20260504T12Z_MSC_GDPS_WindV_AGL-10m_LatLon0.15_PT105H.grib2 2026-05-04 16:44 1.6M
20260504T12Z_MSC_GDPS_WindV_AGL-120m_LatLon0.15_PT105H.grib2 2026-05-04 16:44 1.0M
20260504T12Z_MSC_GDPS_WindV_AGL-40m_LatLon0.15_PT105H.grib2 2026-05-04 16:44 970K
20260504T12Z_MSC_GDPS_WindV_AGL-80m_LatLon0.15_PT105H.grib2 2026-05-04 16:44 1.0M
20260504T12Z_MSC_GDPS_WindV_IsbL-0001_LatLon0.15_PT105H.grib2 2026-05-04 16:44 790K
20260504T12Z_MSC_GDPS_WindV_IsbL-0005_LatLon0.15_PT105H.grib2 2026-05-04 16:44 777K
20260504T12Z_MSC_GDPS_WindV_IsbL-0010_LatLon0.15_PT105H.grib2 2026-05-04 16:44 801K
20260504T12Z_MSC_GDPS_WindV_IsbL-0020_LatLon0.15_PT105H.grib2 2026-05-04 16:44 937K
20260504T12Z_MSC_GDPS_WindV_IsbL-0030_LatLon0.15_PT105H.grib2 2026-05-04 16:44 942K
20260504T12Z_MSC_GDPS_WindV_IsbL-0050_LatLon0.15_PT105H.grib2 2026-05-04 16:44 1.0M
20260504T12Z_MSC_GDPS_WindV_IsbL-0100_LatLon0.15_PT105H.grib2 2026-05-04 16:44 856K
20260504T12Z_MSC_GDPS_WindV_IsbL-0150_LatLon0.15_PT105H.grib2 2026-05-04 16:44 1.0M
20260504T12Z_MSC_GDPS_WindV_IsbL-0175_LatLon0.15_PT105H.grib2 2026-05-04 16:44 819K
20260504T12Z_MSC_GDPS_WindV_IsbL-0200_LatLon0.15_PT105H.grib2 2026-05-04 16:44 847K
20260504T12Z_MSC_GDPS_WindV_IsbL-0225_LatLon0.15_PT105H.grib2 2026-05-04 16:44 912K
20260504T12Z_MSC_GDPS_WindV_IsbL-0250_LatLon0.15_PT105H.grib2 2026-05-04 16:44 909K
20260504T12Z_MSC_GDPS_WindV_IsbL-0275_LatLon0.15_PT105H.grib2 2026-05-04 16:44 929K
20260504T12Z_MSC_GDPS_WindV_IsbL-0300_LatLon0.15_PT105H.grib2 2026-05-04 16:44 919K
20260504T12Z_MSC_GDPS_WindV_IsbL-0350_LatLon0.15_PT105H.grib2 2026-05-04 16:44 872K
20260504T12Z_MSC_GDPS_WindV_IsbL-0400_LatLon0.15_PT105H.grib2 2026-05-04 16:44 875K
20260504T12Z_MSC_GDPS_WindV_IsbL-0450_LatLon0.15_PT105H.grib2 2026-05-04 16:44 877K
20260504T12Z_MSC_GDPS_WindV_IsbL-0500_LatLon0.15_PT105H.grib2 2026-05-04 16:44 884K
20260504T12Z_MSC_GDPS_WindV_IsbL-0550_LatLon0.15_PT105H.grib2 2026-05-04 16:44 1.1M
20260504T12Z_MSC_GDPS_WindV_IsbL-0600_LatLon0.15_PT105H.grib2 2026-05-04 16:44 1.1M
20260504T12Z_MSC_GDPS_WindV_IsbL-0650_LatLon0.15_PT105H.grib2 2026-05-04 16:44 1.2M
20260504T12Z_MSC_GDPS_WindV_IsbL-0700_LatLon0.15_PT105H.grib2 2026-05-04 16:44 1.2M
20260504T12Z_MSC_GDPS_WindV_IsbL-0750_LatLon0.15_PT105H.grib2 2026-05-04 16:44 1.3M
20260504T12Z_MSC_GDPS_WindV_IsbL-0800_LatLon0.15_PT105H.grib2 2026-05-04 16:44 1.3M
20260504T12Z_MSC_GDPS_WindV_IsbL-0850_LatLon0.15_PT105H.grib2 2026-05-04 16:44 1.4M
20260504T12Z_MSC_GDPS_WindV_IsbL-0875_LatLon0.15_PT105H.grib2 2026-05-04 16:44 1.4M
20260504T12Z_MSC_GDPS_WindV_IsbL-0900_LatLon0.15_PT105H.grib2 2026-05-04 16:44 1.5M
20260504T12Z_MSC_GDPS_WindV_IsbL-0925_LatLon0.15_PT105H.grib2 2026-05-04 16:44 1.5M
20260504T12Z_MSC_GDPS_WindV_IsbL-0950_LatLon0.15_PT105H.grib2 2026-05-04 16:44 1.4M
20260504T12Z_MSC_GDPS_WindV_IsbL-0970_LatLon0.15_PT105H.grib2 2026-05-04 16:44 1.4M
20260504T12Z_MSC_GDPS_WindV_IsbL-0985_LatLon0.15_PT105H.grib2 2026-05-04 16:44 1.4M
20260504T12Z_MSC_GDPS_WindV_IsbL-1000_LatLon0.15_PT105H.grib2 2026-05-04 16:44 1.4M
20260504T12Z_MSC_GDPS_WindV_IsbL-1015_LatLon0.15_PT105H.grib2 2026-05-04 16:44 1.3M